Location: Praha
(50.0830°N, 14.4670°E)
Time: 16:11:56
(UTC+01:00)

ISS - Pass Details

Date: 13 November 2018
Orbit: 401 x 408 km, 51.6° (Epoch: 20 November)

Event Time Altitude Azimuth Distance (km) Brightness Sun altitude
Exits shadow 05:01:52 25° 176° (S) 849 -2.2 -20.7°
Drops below altitude 10° 05:03:48 10° 148° (SSE) 1,458 -0.6 -20.4°
Sets 05:06:00 0° 138° (SE) 2,316 0.7 -20.1°
